Tracking 29892 objects as of 21-Nov-2024
HD Live streaming from Space Station
objects crossing your sky now

STARLINK-1905

Track STARLINK-1905 now!
10-day predictions
STARLINK-1905 is classified as:


NORAD ID: 46746
Int'l Code: 2020-074H
Perigee: 553.0 km
Apogee: 555.6 km
Inclination: 53.1 °
Period: 95.6 minutes
Semi major axis: 6925 km
RCS: Unknown
Launch date: October 24, 2020
Source: United States (US)
Launch site: AIR FORCE EASTERN TEST RANGE (AFETR)
Your satellite tracking list
Your tracking list is empty




NASA's NSSDC Master Catalog

Two Line Element Set (TLE):
1 46746U 20074H   24325.91109400  .00014947  00000-0  10196-2 0  9994
2 46746  53.0546 288.4905 0001835  87.3218 272.7981 15.06422124225286
Source of the keplerian elements: AFSPC